Jamaica, NY

8:31 PM EST on February 05, 2016 (GMT -0500)
Kennedy International

Weather History for KJFK - March, 2013

Change the Weather History Date:

Tuesday, March 26, 2013

  Actual Average Record
Temperature  
Mean Temperature 45 °F 44 °F  
Max Temperature 53 °F 52 °F 65 °F (2000)
Min Temperature 36 °F 37 °F 4 °F (1960)
Degree Days  
Heating Degree Days 20 20  
Month to date heating degree days 673 626  
Since 1 July heating degree days 4003 4137  
Cooling Degree Days 0 0  
Month to date cooling degree days 0 0  
Year to date cooling degree days 0 0  
Moisture  
Dew Point 26 °F    
Average Humidity 55    
Maximum Humidity 82    
Minimum Humidity 28    
Precipitation  
Precipitation T in 0.13 in 1.47 in (1973)
Month to date precipitation 2.20 3.12  
Year to date precipitation 7.32 8.87  
Snow  
Snow 0.00 in 0.10 in 1.70 in (2001)
Month to date snowfall 4.4 3.2  
Since 1 July snowfall 17.6 22.7  
Snow Depth 0.00 in    
Sea Level Pressure  
Sea Level Pressure 29.74 in    
Wind  
Wind Speed 9 mph (NW)    
Max Wind Speed 22 mph    
Max Gust Speed 32 mph    
Visibility 10 miles    
Events Rain    
T = Trace of Precipitation, MM = Missing Value Source: NWS Daily Summary

Daily Weather History Graph

Daily Weather History Graph

Search for Another Location

Airport or City:

Trip Planner

Search our weather history database for the weather conditions in past years. The results will help you decide how hot, cold, wet, or windy it might be!

Date:

Astronomy

Mar. 26, 2013 Rise Set
Actual Time 6:48 AM EDT 7:13 PM EDT
Civil Twilight 6:20 AM EDT 7:41 PM EDT
Nautical Twilight 5:48 AM EDT 8:13 PM EDT
Astronomical Twilight 5:15 AM EDT 8:46 PM EDT
Moon 6:47 PM EDT (3/26) 6:03 AM EDT (3/26)
Length of Visible Light 13h 20m
Length of Day
12h 25m
Waxing Gibbous, 99% of the Moon is Illuminated
Mar 26
Waxing Gibbous
Mar 27
Full
Apr 3
Last Quarter
Apr 10
New
Apr 18
First Quarter

Hourly Weather History & Observations

Time (EDT) Temp. Windchill Dew Point Humidity Pressure Visibility Wind Dir Wind Speed Gust Speed Precip Events Conditions
12:51 AM 37.0 °F 31.0 °F 32.0 °F 82% 29.60 in 10.0 mi NW 8.1 mph - N/A   Overcast
1:51 AM 37.9 °F 32.1 °F 28.9 °F 70% 29.62 in 10.0 mi North 8.1 mph - N/A   Mostly Cloudy
2:51 AM 37.0 °F 31.6 °F 27.0 °F 67% 29.63 in 10.0 mi North 6.9 mph - N/A   Mostly Cloudy
3:51 AM 37.0 °F 31.0 °F 28.0 °F 70% 29.65 in 10.0 mi WNW 8.1 mph - N/A   Overcast
4:51 AM 37.0 °F 31.0 °F 28.9 °F 73% 29.66 in 10.0 mi NW 8.1 mph - N/A   Overcast
5:51 AM 37.9 °F 32.1 °F 28.9 °F 70% 29.68 in 10.0 mi NNW 8.1 mph - N/A   Overcast
6:51 AM 37.9 °F 33.5 °F 28.0 °F 68% 29.70 in 10.0 mi NW 5.8 mph - N/A   Mostly Cloudy
7:51 AM 37.9 °F 32.7 °F 30.0 °F 73% 29.73 in 10.0 mi West 6.9 mph - N/A   Mostly Cloudy
8:51 AM 41.0 °F 38.0 °F 30.9 °F 67% 29.75 in 10.0 mi Variable 4.6 mph - N/A   Mostly Cloudy
9:51 AM 44.1 °F 40.8 °F 28.9 °F 55% 29.75 in 10.0 mi West 5.8 mph - N/A   Mostly Cloudy
10:51 AM 46.9 °F - 28.9 °F 50% 29.75 in 10.0 mi WSW 10.4 mph - N/A   Mostly Cloudy
11:21 AM 46.4 °F 40.4 °F 28.4 °F 50% 29.75 in 10.0 mi NW 13.8 mph 32.2 mph N/A   Scattered Clouds
11:51 AM 48.9 °F - 27.0 °F 43% 29.75 in 10.0 mi NW 15.0 mph - N/A   Scattered Clouds
12:51 PM 48.9 °F - 24.1 °F 38% 29.74 in 10.0 mi NNW 15.0 mph - N/A   Mostly Cloudy
1:51 PM 53.1 °F - 21.9 °F 30% 29.74 in 10.0 mi NNW 10.4 mph - N/A   Mostly Cloudy
2:51 PM 50.0 °F - 19.9 °F 31% 29.73 in 10.0 mi North 15.0 mph 18.4 mph N/A   Mostly Cloudy
3:51 PM 48.9 °F - 23.0 °F 36% 29.75 in 10.0 mi NNW 10.4 mph - N/A   Mostly Cloudy
4:51 PM 50.0 °F - 21.9 °F 33% 29.75 in 10.0 mi NW 10.4 mph - N/A   Mostly Cloudy
5:51 PM 46.0 °F 39.0 °F 27.0 °F 47% 29.78 in 10.0 mi North 17.3 mph 23.0 mph 0.00 in Rain Light Rain
6:51 PM 46.0 °F 41.9 °F 26.1 °F 46% 29.80 in 10.0 mi North 8.1 mph - 0.00 in   Mostly Cloudy
7:51 PM 44.1 °F 40.1 °F 25.0 °F 47% 29.82 in 10.0 mi NNW 6.9 mph - N/A   Scattered Clouds
8:51 PM 44.1 °F 38.6 °F 23.0 °F 43% 29.84 in 10.0 mi NW 10.4 mph - N/A   Scattered Clouds
9:51 PM 43.0 °F 38.8 °F 23.0 °F 45% 29.86 in 10.0 mi NNW 6.9 mph - N/A   Scattered Clouds
10:51 PM 43.0 °F 37.2 °F 24.1 °F 47% 29.87 in 10.0 mi WNW 10.4 mph - N/A   Partly Cloudy
11:51 PM 42.1 °F 37.1 °F 23.0 °F 47% 29.87 in 10.0 mi NW 8.1 mph - N/A   Partly Cloudy